Volver al catálogo

STARLINK-6145

ActivoComunicacionesVLEO
NORAD 56389·PAYLOAD·🇺🇸 United States

Lanzado May 4, 2023 desde Cape Canaveral Space Force Station

Loading…

Próximos Pases (próximas 24 horas)

TLE

ActualizadoSource: CelesTrak SupGP

Época: Sep 15, 2026, 02:14 UTC

1 56389C 23061R   26258.09354167 -.00020332  00000+0 -73662-3 0  2587
2 56389  42.9994 208.4449 0000925 255.0303 123.3030 15.27580713    17

Sigue STARLINK-6145 en tiempo real con AllMySat

Download on the App Store